User: anonymous   Login
Location: ????
(30.1475°N, 31.1342°E)
Time: 03:00:51
(UTC+00:00)
Language:

ARIANE 5 R/B - Orbit

View from above orbital plane
View from above orbital plane
View from above satellite
View from above satellite

Ground track
Ground track

The orbit data is extracted from the following two-line orbital elements,

1 27387U 02009B   24107.92568186  .00000399  00000-0  15128-3 0  9998
2 27387  98.7964  96.7287 0031337 302.7174  57.0991 14.36360894159709
Epoch (UTC): 16 April 2024 22:12:58
Eccentricity: 0.0031337
inclination: 98.7964°
perigee height: 748 km
apogee height: 793 km
right ascension of ascending node: 96.7287°
argument of perigee: 302.7174°
revolutions per day: 14.36360894
mean anomaly at epoch: 57.0991°
orbit number at epoch: 15970

The dashed part of the orbit path shows where the satellite is in the earth's shadow,  

DLR